When you browse on this site, cookies collect data to enhance your experience and personalize the content and advertising you see.
Visit our Privacy Policy to learn more. By continuing to use the site, you agree to this use of cookies and data.
  • In Hungary
  • List of Countries
  • For 7 days
  • Water Temperature
  • Weather Map
  • News
  • Weather Widgets
  • user-avatar
    Login

    Hourly Weather Zeliv

    Today, 25 August, Sunday

    Time Temperature Precipitation Wind Pressure Humidity
    00:00 +17°C° 0 mm 3 mps 742 mmHg 77%
    01:00 +17°C° 0 mm 3 mps 742 mmHg 77%
    02:00 +17°C° 0 mm 3 mps 742 mmHg 79%
    03:00 +16°C° 0 mm 3 mps 742 mmHg 80%
    04:00 +16°C° 0 mm 3 mps 742 mmHg 81%
    05:00 +16°C° 0 mm 3 mps 742 mmHg 82%
    06:00 +17°C° 0 mm 3 mps 742 mmHg 80%
    07:00 +18°C° 0 mm 3 mps 742 mmHg 78%
    08:00 +19°C° 0 mm 4 mps 743 mmHg 76%
    09:00 +21°C° 0 mm 4 mps 743 mmHg 72%
    10:00 +23°C° 0 mm 4 mps 743 mmHg 68%
    11:00 +25°C° 0 mm 4 mps 743 mmHg 64%
    12:00 +26°C° 0 mm 4 mps 743 mmHg 62%
    13:00 +27°C° 0 mm 4 mps 742 mmHg 60%
    14:00 +28°C° 0 mm 4 mps 742 mmHg 58%
    15:00 +28°C° 0 mm 4 mps 742 mmHg 60%
    16:00 +27°C° 0 mm 4 mps 742 mmHg 62%
    17:00 +27°C° 0 mm 4 mps 742 mmHg 64%
    18:00 +26°C° 0 mm 4 mps 742 mmHg 69%
    19:00 +23°C° 0 mm 4 mps 742 mmHg 74%
    20:00 +21°C° 0 mm 4 mps 742 mmHg 79%
    21:00 +20°C° 0.2 mm 4 mps 742 mmHg 81%
    22:00 +19°C° 0.2 mm 4 mps 742 mmHg 83%
    23:00 +18°C° 0.2 mm 4 mps 742 mmHg 85%

    Tomorrow, 26 August, Monday

    Time Temperature Precipitation Wind Pressure Humidity
    00:00 +18°C° 0.1 mm 3 mps 742 mmHg 85%
    01:00 +17°C° 0.1 mm 3 mps 742 mmHg 86%
    02:00 +17°C° 0.1 mm 3 mps 742 mmHg 87%
    03:00 +17°C° 0 mm 3 mps 742 mmHg 87%
    04:00 +16°C° 0 mm 3 mps 742 mmHg 86%
    05:00 +16°C° 0 mm 3 mps 741 mmHg 86%
    06:00 +17°C° 0 mm 3 mps 741 mmHg 82%
    07:00 +18°C° 0 mm 3 mps 742 mmHg 78%
    08:00 +19°C° 0 mm 4 mps 742 mmHg 74%
    09:00 +21°C° 0 mm 4 mps 742 mmHg 70%
    10:00 +23°C° 0 mm 4 mps 742 mmHg 66%
    11:00 +26°C° 0 mm 4 mps 742 mmHg 61%
    12:00 +27°C° 0 mm 4 mps 742 mmHg 59%
    13:00 +28°C° 0 mm 4 mps 742 mmHg 57%
    14:00 +29°C° 0 mm 4 mps 742 mmHg 55%
    15:00 +29°C° 0 mm 4 mps 741 mmHg 56%
    16:00 +29°C° 0 mm 4 mps 741 mmHg 58%
    17:00 +29°C° 0 mm 3 mps 741 mmHg 59%
    18:00 +27°C° 0 mm 3 mps 740 mmHg 64%
    19:00 +25°C° 0 mm 3 mps 740 mmHg 68%
    20:00 +22°C° 0 mm 3 mps 740 mmHg 72%
    21:00 +21°C° 0 mm 3 mps 740 mmHg 70%
    22:00 +21°C° 0 mm 3 mps 741 mmHg 69%
    23:00 +20°C° 0 mm 3 mps 741 mmHg 68%

    Day after tomorrow, 27 August, Tuesday

    Time Temperature Precipitation Wind Pressure Humidity
    00:00 +20°C° 0 mm 3 mps 741 mmHg 67%
    01:00 +19°C° 0 mm 3 mps 741 mmHg 66%
    02:00 +18°C° 0 mm 3 mps 741 mmHg 65%
    03:00 +18°C° 0 mm 3 mps 741 mmHg 67%
    04:00 +17°C° 0 mm 3 mps 740 mmHg 69%
    05:00 +17°C° 0 mm 2 mps 740 mmHg 70%
    06:00 +18°C° 0 mm 3 mps 741 mmHg 70%
    07:00 +19°C° 0 mm 3 mps 741 mmHg 69%
    08:00 +20°C° 0 mm 3 mps 741 mmHg 68%
    09:00 +22°C° 0 mm 3 mps 741 mmHg 64%
    10:00 +25°C° 0 mm 3 mps 741 mmHg 60%
    11:00 +27°C° 0 mm 3 mps 741 mmHg 55%
    12:00 +28°C° 0 mm 3 mps 741 mmHg 53%
    13:00 +29°C° 0 mm 3 mps 741 mmHg 51%
    14:00 +29°C° 0 mm 3 mps 741 mmHg 49%
    15:00 +29°C° 0 mm 3 mps 741 mmHg 51%
    16:00 +29°C° 0 mm 3 mps 741 mmHg 54%
    17:00 +28°C° 0 mm 3 mps 740 mmHg 57%
    18:00 +26°C° 0 mm 3 mps 740 mmHg 61%
    19:00 +24°C° 0 mm 3 mps 740 mmHg 65%
    20:00 +21°C° 0 mm 2 mps 740 mmHg 69%
    21:00 +21°C° 0 mm 3 mps 741 mmHg 71%
    22:00 +20°C° 0 mm 3 mps 741 mmHg 73%
    23:00 +19°C° 0 mm 3 mps 741 mmHg 74%

    28 August, Wednesday

    Time Temperature Precipitation Wind Pressure Humidity
    00:00 +19°C° 0 mm 3 mps 741 mmHg 74%
    01:00 +18°C° 0 mm 3 mps 741 mmHg 74%
    02:00 +18°C° 0 mm 3 mps 741 mmHg 73%
    03:00 +18°C° 0 mm 3 mps 741 mmHg 75%
    04:00 +17°C° 0 mm 3 mps 740 mmHg 76%
    05:00 +17°C° 0 mm 3 mps 740 mmHg 77%
    06:00 +18°C° 0 mm 3 mps 740 mmHg 74%
    07:00 +19°C° 0 mm 4 mps 740 mmHg 71%
    08:00 +20°C° 0 mm 4 mps 740 mmHg 68%
    09:00 +22°C° 0 mm 4 mps 741 mmHg 63%
    10:00 +25°C° 0 mm 5 mps 741 mmHg 59%
    11:00 +26°C° 0 mm 5 mps 741 mmHg 55%
    12:00 +27°C° 0 mm 5 mps 740 mmHg 52%
    13:00 +28°C° 0 mm 5 mps 740 mmHg 50%
    14:00 +29°C° 0 mm 5 mps 740 mmHg 48%
    15:00 +29°C° 0 mm 5 mps 740 mmHg 51%
    16:00 +28°C° 0 mm 4 mps 739 mmHg 54%
    17:00 +28°C° 0 mm 4 mps 739 mmHg 57%
    18:00 +26°C° 0 mm 4 mps 739 mmHg 61%
    19:00 +23°C° 0 mm 4 mps 739 mmHg 66%
    20:00 +21°C° 0 mm 4 mps 739 mmHg 70%
    21:00 +21°C° 0 mm 4 mps 739 mmHg 69%
    22:00 +20°C° 0 mm 4 mps 739 mmHg 68%
    23:00 +19°C° 0 mm 4 mps 739 mmHg 67%

    29 August, Thursday

    Time Temperature Precipitation Wind Pressure Humidity
    00:00 +19°C° 0 mm 4 mps 739 mmHg 69%
    01:00 +18°C° 0 mm 4 mps 739 mmHg 72%
    02:00 +18°C° 0 mm 4 mps 739 mmHg 74%
    03:00 +18°C° 0 mm 4 mps 739 mmHg 76%
    04:00 +17°C° 0 mm 4 mps 739 mmHg 78%
    05:00 +17°C° 0 mm 3 mps 739 mmHg 80%
    06:00 +18°C° 0 mm 4 mps 739 mmHg 77%
    07:00 +19°C° 0 mm 4 mps 739 mmHg 74%
    08:00 +20°C° 0 mm 4 mps 739 mmHg 71%
    09:00 +21°C° 0 mm 5 mps 739 mmHg 66%
    10:00 +23°C° 0 mm 5 mps 739 mmHg 62%
    11:00 +26°C° 0 mm 5 mps 739 mmHg 58%
    12:00 +27°C° 0 mm 5 mps 739 mmHg 55%
    13:00 +28°C° 0 mm 5 mps 739 mmHg 53%
    14:00 +29°C° 0 mm 5 mps 738 mmHg 50%
    15:00 +28°C° 0 mm 5 mps 738 mmHg 53%
    16:00 +28°C° 0 mm 4 mps 738 mmHg 56%
    17:00 +27°C° 0 mm 4 mps 738 mmHg 58%
    18:00 +25°C° 0 mm 4 mps 738 mmHg 63%
    19:00 +23°C° 0 mm 4 mps 738 mmHg 68%
    20:00 +21°C° 0 mm 3 mps 738 mmHg 72%
    21:00 +20°C° 0 mm 4 mps 738 mmHg 70%
    22:00 +20°C° 0 mm 4 mps 738 mmHg 67%
    23:00 +19°C° 0 mm 4 mps 738 mmHg 65%

    30 August, Friday

    Time Temperature Precipitation Wind Pressure Humidity
    00:00 +19°C° 0 mm 4 mps 738 mmHg 64%
    01:00 +18°C° 0 mm 4 mps 738 mmHg 63%
    02:00 +17°C° 0 mm 3 mps 738 mmHg 62%
    03:00 +17°C° 0 mm 4 mps 738 mmHg 63%
    04:00 +15°C° 0 mm 4 mps 738 mmHg 63%
    05:00 +15°C° 0 mm 4 mps 738 mmHg 64%
    06:00 +17°C° 0 mm 4 mps 738 mmHg 64%
    07:00 +17°C° 0 mm 4 mps 738 mmHg 65%
    08:00 +18°C° 0 mm 4 mps 738 mmHg 65%
    09:00 +20°C° 0 mm 4 mps 739 mmHg 61%
    10:00 +22°C° 0 mm 4 mps 739 mmHg 58%
    11:00 +25°C° 0 mm 4 mps 739 mmHg 54%
    12:00 +26°C° 0 mm 4 mps 739 mmHg 52%
    13:00 +27°C° 0 mm 3 mps 739 mmHg 50%
    14:00 +28°C° 0 mm 3 mps 739 mmHg 48%
    15:00 +28°C° 0 mm 3 mps 739 mmHg 50%
    16:00 +28°C° 0 mm 3 mps 738 mmHg 52%
    17:00 +28°C° 0 mm 3 mps 738 mmHg 55%
    18:00 +26°C° 0 mm 3 mps 738 mmHg 58%
    19:00 +24°C° 0 mm 3 mps 738 mmHg 62%
    20:00 +20°C° 0 mm 3 mps 738 mmHg 66%
    21:00 +20°C° 0.1 mm 3 mps 739 mmHg 65%
    22:00 +19°C° 0.1 mm 2 mps 739 mmHg 64%
    23:00 +18°C° 0.1 mm 2 mps 739 mmHg 62%
    Show more